Regional Weather Roundup
Issued by NWS

Home | Current Version | Previous Version | Text Only | Print | Product List | Glossary On
Versions: 1 2 3 4 5 6 7 8 9 10 11 12 13 14 15 16 17 18 19 20 21 22 23 24 25 26 27 28 29 30 31 32 33 34 35 36 37 38 39 40 41 42 43 44 45 46 47 48 49 50
000
ASUS43 KLOT 050308
RWRIL

ILLINOIS REGIONAL WEATHER ROUNDUP
NATIONAL WEATHER SERVICE CHICAGO/ROMEOVILLE IL
1000 PM CDT WED MAY 04 2016

NOTE: "FAIR" INDICATES FEW OR NO CLOUDS BELOW 12,000 FEET WITH NO
SIGNIFICANT WEATHER AND/OR OBSTRUCTIONS TO VISIBILITY.

* THESE STATIONS ARE NOT UNDER NWS QUALITY CONTROL. THEY ALSO MAY NOT
  REPORT WEATHER SUCH AS PRECIPITATION OR FOG.

ILZ001-002-007-009-015-016-024-050400-
NORTHWEST ILLINOIS

CITY           SKY/WX    TMP DP  RH WIND       PRES   REMARKS
MOLINE         CLEAR     56  32  40 NW8       29.88R
STERLING*      CLEAR     52  36  54 NE5       29.89R
SAVANNA*       CLEAR     52  31  43 N7        29.89R
$$

ILZ003-004-008-010-011-017-018-050400-
NORTH CENTRAL ILLINOIS

CITY           SKY/WX    TMP DP  RH WIND       PRES   REMARKS
ROCKFORD       CLEAR     46  37  71 E7        29.92R
FREEPORT*      CLEAR     48  37  65 N8        29.91R
ROCHELLE*      CLEAR     46  40  80 NE13      29.90R
DE KALB*       CLEAR     43  37  80 NE9       29.90R
$$

ILZ005-006-012>014-019>023-050400-
NORTHEAST ILLINOIS

CITY           SKY/WX    TMP DP  RH WIND       PRES   REMARKS
CHICAGO-OHARE  PTCLDY    43  34  70 N16G26    29.88R
CHICAGO-MIDWAY CLOUDY    45  33  63 N17G23    29.88R
AURORA         CLEAR     44  37  76 NE12      29.89R
LANSING*       CLOUDY    43  35  72 N17G26    29.87R
JOLIET*        CLOUDY    46  37  69 NE9       29.89R
WAUKEGAN       MOCLDY    42  35  76 N9G20     29.89R
DUPAGE AIRPORT CLEAR     39  33  79 N8        29.89R WCI  33
KANKAKEE*      CLOUDY    45  37  73 N6        29.88R
WHEELING       PTCLDY    43  34  70 N12       29.90R
MORRIS*        PTCLDY    44  37  77 NE3       29.88R
ROMEOVILLE*    MOCLDY    44  34  68 NE16G24   29.88R
NORTHERLY ISL    N/A     43  36  76 N17         N/A
NORTHERLY ISL    N/A     43  36  76 N17         N/A
$$

LMZ740>746-050400-
SOUTHERN LAKE MICHIGAN

STATION/POSITION SKY/WX   TEMP    WIND        PRES    VSBY  WAVE
                          AIR SEA DIR/SP/G                  HT/PER
                          (F)     (DEG/KT/KT) (MB)    (MI)  (FT/S)
SOUTHERN BUOY              41 40   10/ 27/ 33 1010.1R         9/ 8
WILMETTE HARBOR            42 43   20/ 16/ 21   N/A           7/ 8
HARRISON CRIB              44     350/ 21/ 23   N/A
BURNHAM HARBOR             43     360/ 16/ 20   N/A
CALUMET HARBOR             43                 1010.7R
BURNS HARBOR               43      10/ 21/ 25 1010.8S
MICHIGAN CITY              42     340/ 35/ 38   N/A
ST. JOSEPH                 42 47                N/A          10/ 8
$$

ILZ025>027-034>036-040-047-049-050-058-095>099-050400-
WEST-CENTRAL ILLINOIS

CITY           SKY/WX    TMP DP  RH WIND       PRES   REMARKS
QUINCY         CLEAR     53  37  54 NW6       29.90R
GALESBURG*     CLEAR     50  36  57 NW7       29.89R
MACOMB*        CLEAR     49  38  64 NW7       29.92R
JACKSONVILLE*  MOCLDY    51  37  57 NW5       29.89R
PITTSFIELD*    PTCLDY    53  40  61 NW3       29.91R
$$

ILZ028>032-037-038-041>044-048-051>054-059>061-050400-
CENTRAL ILLINOIS

CITY           SKY/WX    TMP DP  RH WIND       PRES   REMARKS
PONTIAC        CLEAR     48  43  82 NE5       29.87R
BLOOMINGTON    CLEAR     47  42  82 NW7       29.86R
DECATUR        PTCLDY    51  40  65 CALM      29.85S
PEORIA         PTCLDY    53  35  50 CALM      29.86S
LACON*         CLEAR     44  39  82 CALM      29.86R
LINCOLN*       CLEAR     51  42  71 CALM      29.86S
SPRINGFIELD    PTCLDY    52  37  56 NW5       29.87R
TAYLORVILLE    PTCLDY    52  39  62 NW5       29.87R
$$

ILZ033-039-045-046-055>057-062-063-050400-
EAST-CENTRAL ILLINOIS

CITY           SKY/WX    TMP DP  RH WIND       PRES   REMARKS
CHAMPAIGN      CLOUDY    50  42  74 CALM      29.84S
RANTOUL*       CLOUDY    50  44  79 NE7       29.85R
MATTOON        CLOUDY    50  43  77 N5        29.84R
PARIS*         CLOUDY    49  42  76 CALM      29.84S
$$

ILZ079-100>102-050400-
SOUTHWEST ILLINOIS

CITY           SKY/WX    TMP DP  RH WIND       PRES   REMARKS
ALTON          CLEAR     50  41  71 W9        29.89S
CAHOKIA*       PTCLDY    57  36  45 W6        29.89S
SPARTA*        MOCLDY    54  41  62 CALM      29.91R
$$

ILZ064>066-069>071-074>076-080>082-084>086-088>090-092>094-050400-
SOUTH-CENTRAL ILLINOIS

CITY           SKY/WX    TMP DP  RH WIND       PRES   REMARKS
CARBONDALE     CLEAR     52  42  69 CALM      29.90R
CAIRO*         CLEAR     57  42  56 N6        29.90R
EFFINGHAM*     CLOUDY    50  48  95 SW3       29.88S
MARION         MOCLDY    50  45  81 CALM      29.90R
MT. VERNON     PTCLDY    46  37  71 CALM      29.89R
CENTRALIA*     PTCLDY    48  45  87 W3        29.87S
SALEM*         PTCLDY    52  42  70 CALM      29.87S
METROPOLIS*    CLEAR     56  44  64 CALM      29.90R
$$

ILZ067-068-072-073-078-083-087-091-050400-
SOUTHEAST ILLINOIS

CITY           SKY/WX    TMP DP  RH WIND       PRES   REMARKS
LAWRENCEVILLE  CLOUDY    52  43  71 NW6       29.85S
FLORA*         CLOUDY    53  45  72 W5        29.87S
FAIRFIELD*     CLOUDY    51  45  80 CALM      29.87R
HARRISBURG*    MOCLDY    54  42  65 CALM      29.89S
ROBINSON*      CLOUDY    50  43  78 NW3       29.86S
CARMI*         PTCLDY    52  44  75 NW5       29.87S
$$

ABBREVIATIONS USED IN REMARKS
   TC - TEMPERATURE IN CELSIUS
  WCI - WIND CHILL INDEX
   HX - HEAT INDEX
  VSB - VISIBILITY
$$




USA.gov is the U.S. government's official web portal to all federal, state and local government web resources and services.